Location: Ash Shall?l al Awwal
(24.0167°N, 32.8667°E)
Time: 05:03:35
(UTC+00:00)

Cosmos 2360 Rocket - Pass Details

Date: 02 March 2021
Orbit: 832 x 846 km, 71.0° (Epoch: 12 April)

Event Time Altitude Azimuth Distance (km) Brightness Sun altitude
Rises 17:04:45 0° 214° (SSW) 3,368 5.8 -17.4°
Reaches altitude 10° 17:07:18 10° 220° (SW) 2,438 5.1 -18.0°
Maximum altitude 17:12:34 42° 291° (WNW) 1,173 3.4 -19.2°
Drops below altitude 10° 17:17:53 10° 2° (N) 2,455 4.6 -20.4°
Sets 17:20:28 0° 9° (N) 3,394 5.3 -21.0°
